GW5037 Weather Reports


time (UTC)temp
C
wind
direction
speed
KPH
gust
KPH
rain 1hr
cm
rain 24hr
cm
rain mn
cm
humidity
%
barometer
mb
20260507021005 7 85 0.0 0.0 0.00 0.64 0.64 82 1011.4
20260507020502 7 85 0.0 0.0 0.00 0.64 0.64 81 1011.1
20260507015958 8 85 0.0 0.0 0.00 0.64 0.64 80 1011.4
20260507015457 8 85 0.0 0.0 0.00 0.64 0.64 79 1011.4
20260507014954 8 85 0.0 0.0 0.00 0.64 0.64 77 1011.1
20260507014450 8 86 0.0 0.0 0.00 0.64 0.64 76 1011.1
20260507013946 9 85 0.0 0.0 0.00 0.64 0.64 75 1011.1
20260507013443 9 85 0.0 0.0 0.00 0.64 0.64 73 1011.4
20260507012941 10 85 0.0 0.0 0.00 0.64 0.64 73 1011.1
20260507012437 10 86 0.0 0.0 0.00 0.64 0.64 72 1011.1
20260507011934 10 86 0.0 0.0 0.00 0.64 0.64 71 1011.4
20260507011431 10 86 0.0 0.0 0.00 0.64 0.64 71 1011.1
20260507010931 10 85 0.0 0.0 0.00 0.64 0.64 71 1010.7
20260507010426 10 86 0.0 0.0 0.00 0.64 0.64 71 1010.7
20260507005923 10 85 0.0 0.0 0.00 0.64 0.64 70 1011.1
20260507005421 10 85 0.0 0.0 0.00 0.64 0.64 69 1010.7
20260507004917 10 85 0.0 0.0 0.00 0.64 0.64 69 1010.7
20260507004414 11 85 0.0 0.0 0.00 0.64 0.64 68 1010.7
20260507003912 11 85 0.0 0.0 0.00 0.64 0.64 66 1010.7
20260507003406 11 85 0.0 0.0 0.00 0.64 0.64 66 1010.4
20260507002902 11 85 0.0 0.0 0.00 0.64 0.64 65 1010.4
20260507002358 11 85 0.0 0.0 0.00 0.64 0.64 66 1010.4
20260507001856 11 85 0.0 0.0 0.00 0.64 0.64 64 1010.4
20260507001352 11 75 0.0 0.0 0.00 0.64 0.64 64 1010.4
20260507000849 11 85 0.0 0.0 0.00 0.64 0.64 61 1010.0
20260507000344 11 98 1.6 3.2 0.00 0.64 0.64 62 1010.4
20260506235841 11 85 0.0 0.0 0.00 0.64 0.64 62 1010.0
20260506235338 12 84 0.0 0.0 0.00 0.64 0.64 60 1010.4
20260506234834 12 84 1.6 1.6 0.00 0.64 0.64 59 1010.4
20260506234332 12 84 0.0 0.0 0.00 0.64 0.64 57 1010.4
20260506233830 12 90 1.6 3.2 0.00 0.64 0.64 56 1010.0
20260506233325 12 96 0.0 1.6 0.00 0.64 0.64 57 1010.0
20260506232822 12 64 0.0 0.0 0.00 0.64 0.64 59 1010.0
20260506232317 12 83 0.0 1.6 0.00 0.64 0.64 60 1010.4
20260506231814 12 63 0.0 0.0 0.00 0.64 0.64 57 1010.4
20260506231313 12 114 0.0 1.6 0.00 0.64 0.64 57 1010.7
20260506230810 12 95 1.6 3.2 0.00 0.64 0.64 56 1010.4
20260506230306 12 91 1.6 1.6 0.00 0.64 0.64 56 1010.7
20260506225802 12 78 0.0 0.0 0.00 0.64 0.64 55 1010.7
20260506225300 12 72 1.6 1.6 0.00 0.64 0.64 56 1010.7
20260506224756 12 87 0.0 0.0 0.00 0.64 0.64 58 1010.7
20260506224254 13 164 3.2 3.2 0.00 0.64 0.64 57 1010.4
20260506223750 13 78 0.0 1.6 0.00 0.64 0.64 59 1010.4
20260506223245 12 79 0.0 0.0 0.00 0.64 0.64 59 1010.7
20260506222742 12 87 0.0 0.0 0.00 0.64 0.64 59 1010.7
20260506222238 12 76 0.0 0.0 0.00 0.64 0.64 59 1010.7
20260506221736 12 80 0.0 0.0 0.00 0.64 0.64 59 1010.7
20260506221234 13 80 3.2 4.8 0.00 0.64 0.64 57 1010.4
20260506220732 13 76 3.2 4.8 0.00 0.64 0.64 57 1010.4
20260506220231 13 139 3.2 3.2 0.00 0.64 0.64 57 1010.4
20260506215729 13 148 1.6 1.6 0.00 0.64 0.64 57 1010.0
20260506215224 13 138 1.6 3.2 0.00 0.64 0.64 55 1010.4
20260506214721 13 72 0.0 0.0 0.00 0.64 0.64 56 1010.0
20260506214218 13 92 3.2 3.2 0.00 0.64 0.64 55 1010.0
20260506213716 13 126 0.0 1.6 0.00 0.64 0.64 57 1010.0
20260506213213 13 40 1.6 3.2 0.00 0.64 0.64 56 1010.0
20260506212710 13 80 1.6 1.6 0.00 0.64 0.64 57 1009.6
20260506212206 13 73 0.0 0.0 0.00 0.64 0.64 59 1009.6
20260506211701 13 47 0.0 0.0 0.00 0.64 0.64 57 1010.0
20260506211158 13 86 1.6 3.2 0.00 0.64 0.64 56 1010.0
20260506210655 13 219 1.6 3.2 0.00 0.64 0.64 55 1010.0
20260506210151 13 30 1.6 3.2 0.00 0.64 0.64 56 1009.6
20260506205649 13 85 0.0 1.6 0.00 0.64 0.64 57 1010.0
20260506205144 13 79 0.0 0.0 0.00 0.64 0.64 58 1010.0
20260506204642 13 84 0.0 0.0 0.00 0.64 0.64 57 1010.0
20260506204138 13 81 1.6 4.8 0.00 0.64 0.64 58 1009.6
20260506203636 13 102 1.6 1.6 0.00 0.64 0.64 59 1009.6
20260506203133 13 208 1.6 1.6 0.00 0.64 0.64 57 1009.6
20260506202631 13 199 1.6 3.2 0.00 0.64 0.64 56 1009.6
20260506202127 13 201 3.2 4.8 0.00 0.64 0.64 54 1009.3
20260506201624 13 99 0.0 0.0 0.00 0.64 0.64 56 1009.3
20260506201120 13 71 0.0 0.0 0.00 0.64 0.64 61 1009.6
20260506200617 13 88 1.6 3.2 0.00 0.64 0.64 57 1009.6
20260506200114 13 92 1.6 3.2 0.00 0.64 0.64 55 1009.6
20260506195610 13 78 1.6 1.6 0.00 0.64 0.64 57 1009.3
20260506195107 13 116 3.2 3.2 0.00 0.64 0.64 57 1009.3
20260506194605 13 154 4.8 8.0 0.00 0.64 0.64 56 1009.6
20260506194101 13 71 3.2 4.8 0.00 0.64 0.64 57 1009.6
20260506193559 13 87 3.2 3.2 0.00 0.64 0.64 57 1009.3
20260506193056 13 81 0.0 0.0 0.00 0.64 0.64 58 1010.0
20260506192552 13 60 1.6 3.2 0.00 0.64 0.64 55 1009.6
20260506192048 13 79 0.0 0.0 0.00 0.64 0.64 57 1009.6
20260506191545 14 114 3.2 3.2 0.00 0.64 0.64 54 1009.6
20260506191041 14 144 3.2 4.8 0.00 0.64 0.64 56 1009.3
20260506190538 15 67 1.6 1.6 0.00 0.64 0.64 53 1009.3
20260506190035 15 57 0.0 1.6 0.00 0.64 0.64 52 1009.3
20260506185532 15 70 0.0 1.6 0.00 0.64 0.64 56 1009.3
20260506185029 15 64 0.0 0.0 0.00 0.64 0.64 59 1009.3
20260506184527 15 26 4.8 4.8 0.00 0.64 0.64 56 1009.3
20260506184024 15 169 1.6 3.2 0.00 0.64 0.64 55 1009.3
20260506183519 15 70 0.0 1.6 0.00 0.64 0.64 57 1009.6
20260506183016 15 56 1.6 3.2 0.00 0.64 0.64 57 1009.3
20260506182514 15 90 1.6 1.6 0.00 0.64 0.64 55 1009.3
20260506182011 15 71 0.0 1.6 0.00 0.64 0.64 55 1009.6
20260506181508 16 207 1.6 4.8 0.00 0.64 0.64 55 1009.6
20260506181005 16 60 3.2 4.8 0.00 0.64 0.64 51 1009.3
20260506180502 15 109 1.6 1.6 0.00 0.64 0.64 52 1009.3
20260506175958 15 114 1.6 3.2 0.00 0.64 0.64 52 1009.6
20260506175455 15 75 0.0 0.0 0.00 0.64 0.64 52 1009.6
20260506174951 15 184 0.0 1.6 0.00 0.64 0.64 55 1009.6
20260506174450 15 88 0.0 0.0 0.00 0.64 0.64 54 1009.6
20260506173946 15 83 1.6 3.2 0.00 0.64 0.64 55 1009.6
20260506173444 16 168 3.2 3.2 0.00 0.64 0.64 57 1009.6
20260506172940 15 75 0.0 0.0 0.00 0.64 0.64 56 1009.6
20260506172438 15 177 1.6 3.2 0.00 0.64 0.64 54 1009.3
20260506171934 15 7 0.0 1.6 0.00 0.64 0.64 55 1009.6
20260506171431 14 99 1.6 1.6 0.00 0.64 0.64 57 1009.3
20260506170929 15 90 0.0 1.6 0.00 0.64 0.64 53 1009.3
20260506170425 15 54 1.6 1.6 0.00 0.64 0.64 59 1009.3
20260506165924 15 84 0.0 1.6 0.00 0.64 0.64 63 1009.3
20260506165422 15 157 3.2 4.8 0.00 0.64 0.64 59 1009.6
20260506164918 15 227 3.2 3.2 0.00 0.64 0.64 57 1009.6
20260506164415 14 104 3.2 4.8 0.00 0.64 0.64 59 1009.6
20260506163913 13 69 0.0 0.0 0.00 0.64 0.64 64 1009.6
20260506163407 13 167 1.6 1.6 0.00 0.64 0.64 61 1009.3
20260506162902 13 230 1.6 3.2 0.00 0.64 0.64 63 1010.0
20260506162401 13 120 1.6 1.6 0.00 0.64 0.64 63 1010.0
20260506161858 14 78 0.0 1.6 0.00 0.64 0.64 62 1009.6
20260506161355 13 127 4.8 9.7 0.00 0.64 0.64 63 1009.6
20260506160853 13 77 0.0 0.0 0.00 0.64 0.64 68 1010.0
20260506160350 13 102 0.0 1.6 0.00 0.64 0.64 66 1009.6
20260506155848 13 92 1.6 1.6 0.00 0.64 0.64 66 1009.3
20260506155344 12 101 1.6 1.6 0.00 0.64 0.64 66 1009.3
20260506153456 12 183 0.0 1.6 0.00 0.64 0.64 68 1008.9
20260506152954 12 57 1.6 1.6 0.00 0.64 0.64 70 1009.3
20260506152450 12 70 1.6 1.6 0.00 0.64 0.64 70 1008.9
20260506151949 12 58 0.0 0.0 0.00 0.64 0.64 69 1009.3
20260506151446 11 32 0.0 1.6 0.00 0.64 0.64 72 1008.9
20260506150943 12 95 0.0 1.6 0.00 0.64 0.64 71 1008.9
20260506150439 11 83 1.6 1.6 0.00 0.64 0.64 71 1008.6
20260506145936 11 75 1.6 1.6 0.00 0.64 0.64 71 1008.6
20260506145432 11 127 1.6 3.2 0.00 0.64 0.64 72 1008.9
20260506144930 11 170 0.0 0.0 0.00 0.64 0.64 78 1008.6
20260506144426 10 75 0.0 0.0 0.00 0.64 0.64 80 1008.9
20260506143925 9 69 1.6 3.2 0.00 0.64 0.64 85 1008.9
20260506143421 8 75 0.0 0.0 0.00 0.64 0.64 93 1008.9
20260506142920 8 93 1.6 1.6 0.00 0.64 0.64 97 1008.6
20260506142418 7 70 0.0 0.0 0.00 0.64 0.64 99 1008.6
20260506141915 7 156 3.2 3.2 0.00 0.64 0.64 99 1008.6
20260506141413 7 69 0.0 0.0 0.00 0.64 0.64 99 1008.3
20260506140911 7 70 0.0 0.0 0.00 0.64 0.64 99 1008.3
20260506140408 7 63 1.6 1.6 0.00 0.64 0.64 99 1008.3
20260506135905 7 120 1.6 1.6 0.00 0.64 0.64 99 1008.3
20260506135402 7 65 0.0 1.6 0.00 0.64 0.64 99 1008.3
20260506134858 7 58 1.6 3.2 0.00 0.64 0.64 99 1008.3
20260506134354 7 165 1.6 3.2 0.00 0.64 0.64 99 1007.9
20260506133851 7 144 0.0 1.6 0.00 0.64 0.64 99 1008.3
20260506133348 7 76 0.0 1.6 0.00 0.64 0.64 99 1007.9
20260506132844 7 230 6.4 9.7 0.00 0.64 0.64 99 1007.9
20260506132342 7 82 0.0 0.0 0.00 0.64 0.64 99 1007.9
20260506131840 7 106 3.2 3.2 0.00 0.64 0.64 99 1007.9
20260506131336 7 68 0.0 0.0 0.00 0.64 0.64 99 1008.3
20260506130833 6 70 0.0 0.0 0.00 0.64 0.64 99 1007.9
20260506130329 6 71 0.0 0.0 0.00 0.64 0.64 99 1008.3
20260506125827 6 69 0.0 0.0 0.00 0.64 0.64 99 1007.9
20260506125326 7 95 0.0 1.6 0.00 0.64 0.64 99 1007.9
20260506124824 7 114 1.6 1.6 0.00 0.64 0.64 99 1007.9
20260506124320 7 115 1.6 1.6 0.00 0.64 0.64 99 1007.9
20260506123818 7 91 1.6 3.2 0.00 0.64 0.64 99 1007.9
20260506123316 7 73 0.0 0.0 0.00 0.64 0.64 99 1007.6
20260506122813 6 95 0.0 0.0 0.00 0.64 0.64 99 1007.3
20260506122310 7 65 0.0 0.0 0.00 0.64 0.64 99 1007.3
20260506121808 7 65 0.0 0.0 0.00 0.64 0.64 99 1007.3
20260506121305 6 87 0.0 0.0 0.00 0.64 0.64 99 1006.9
20260506120802 6 70 0.0 0.0 0.00 0.64 0.64 99 1006.9
20260506120300 6 112 0.0 0.0 0.00 0.64 0.64 99 1006.9
20260506115757 6 72 0.0 0.0 0.00 0.64 0.64 99 1006.9
20260506115255 6 67 0.0 0.0 0.00 0.64 0.64 99 1006.9
20260506114753 6 72 0.0 0.0 0.00 0.64 0.64 99 1006.9
20260506114250 6 72 0.0 0.0 0.00 0.64 0.64 99 1007.3
20260506113749 6 59 0.0 0.0 0.00 0.64 0.64 99 1006.9
20260506113246 7 206 3.2 3.2 0.00 0.64 0.64 99 1006.6
20260506112742 7 67 0.0 0.0 0.00 0.64 0.64 99 1006.6
20260506112240 7 57 1.6 1.6 0.00 0.64 0.64 99 1006.6
20260506111737 7 86 1.6 1.6 0.00 0.64 0.64 99 1006.1
20260506111235 7 69 0.0 0.0 0.00 0.64 0.64 99 1005.8
20260506110731 7 70 0.0 0.0 0.00 0.64 0.64 99 1005.5
20260506110229 7 56 0.0 0.0 0.00 0.64 0.64 99 1005.5
20260506105725 7 63 0.0 0.0 0.00 0.64 0.64 99 1005.8
20260506105223 7 69 0.0 0.0 0.00 0.64 0.64 99 1005.8
20260506104721 7 75 0.0 0.0 0.00 0.64 0.64 99 1005.8
20260506104218 7 62 0.0 1.6 0.00 0.64 0.64 99 1005.8
20260506103715 7 61 0.0 0.0 0.00 0.64 0.64 99 1005.5
20260506103212 7 61 0.0 0.0 0.00 0.64 0.64 99 1005.5
20260506102710 7 66 0.0 0.0 0.00 0.64 0.64 99 1005.5
20260506102208 7 65 0.0 0.0 0.00 0.64 0.64 99 1005.8
20260506101704 7 64 0.0 0.0 0.00 0.64 0.64 99 1005.8
20260506101201 7 75 0.0 0.0 0.00 0.64 0.64 99 1005.5
20260506100659 7 76 0.0 0.0 0.00 0.64 0.64 99 1005.5
20260506100157 7 72 0.0 0.0 0.00 0.64 0.64 99 1004.8
20260506095655 7 64 0.0 0.0 0.00 0.64 0.64 99 1004.8
20260506095151 7 63 0.0 0.0 0.00 0.64 0.64 99 1005.1
20260506094649 7 44 0.0 0.0 0.00 0.64 0.64 99 1004.8
20260506094147 7 67 0.0 0.0 0.00 0.64 0.64 99 1004.8
20260506093645 7 73 0.0 0.0 0.00 0.64 0.64 99 1004.8
20260506093142 6 65 0.0 0.0 0.00 0.64 0.64 99 1004.1
20260506092640 7 148 1.6 1.6 0.00 0.64 0.64 99 1004.1
20260506092136 7 71 0.0 0.0 0.00 0.64 0.64 99 1004.8
20260506091634 7 79 0.0 0.0 0.00 0.64 0.64 99 1005.1
20260506091132 7 57 0.0 1.6 0.00 0.64 0.64 99 1004.8
20260506090630 7 78 0.0 0.0 0.00 0.64 0.64 99 1004.8
20260506090126 7 85 0.0 0.0 0.00 0.64 0.64 99 1004.1
20260506085623 7 72 1.6 1.6 0.15 0.64 0.64 99 1004.4
20260506085119 7 62 0.0 0.0 0.13 0.61 0.61 99 1004.8
20260506084616 7 92 0.0 1.6 0.13 0.61 0.61 99 1004.8
20260506084112 7 109 0.0 1.6 0.10 0.58 0.58 99 1004.8
20260506083610 7 129 0.0 0.0 0.10 0.58 0.58 99 1004.8
20260506083107 7 62 0.0 0.0 0.10 0.58 0.58 99 1005.1
20260506082603 7 50 0.0 0.0 0.08 0.56 0.56 99 1004.8
20260506082059 7 51 3.2 4.8 0.05 0.53 0.53 99 1004.8
20260506081558 7 76 0.0 1.6 0.05 0.53 0.53 99 1004.8
20260506081054 7 62 0.0 1.6 0.03 0.51 0.51 99 1004.8
20260506080552 7 62 0.0 0.0 0.00 0.48 0.48 99 1004.8
20260506073033 7 100 0.0 0.0 0.05 0.46 0.46 99 1004.4
20260506072530 7 86 0.0 0.0 0.05 0.46 0.46 99 1004.1
20260506072027 7 160 3.2 4.8 0.05 0.46 0.46 99 1004.4
20260506071525 7 4 0.0 1.6 0.03 0.43 0.43 99 1004.4
20260506071022 7 69 0.0 0.0 0.03 0.43 0.43 99 1004.1
20260506070519 7 69 0.0 0.0 0.00 0.41 0.41 99 1004.8
20260506062457 7 77 0.0 0.0 0.10 0.23 0.23 99 1004.1
20260506061953 8 171 3.2 4.8 0.08 0.20 0.20 99 1004.4
20260506061449 7 69 0.0 0.0 0.08 0.20 0.20 99 1004.4
20260506060947 8 247 1.6 3.2 0.05 0.18 0.18 99 1004.4
20260506060445 8 294 1.6 4.8 0.03 0.15 0.15 99 1004.4
20260506050914 8 78 0.0 0.0 0.00 0.03 0.03 99 1004.8
20260506050412 8 71 0.0 0.0 0.00 0.03 0.03 99 1004.8
20260506044902 8 66 0.0 0.0 0.00 0.00 0.00 99 1004.8
20260506044400 8 66 0.0 0.0 0.00 0.00 0.00 99 1005.1
20260506043857 8 71 0.0 0.0 0.00 0.00 0.00 99 1004.8
20260506043354 8 98 0.0 1.6 0.00 0.00 0.00 99 1004.4
20260506042852 8 158 1.6 1.6 0.00 0.00 0.00 99 1004.8
20260506042351 8 57 0.0 0.0 0.00 0.00 0.00 99 1004.8
20260506041849 8 66 0.0 0.0 0.00 0.00 0.00 99 1004.8
20260506041346 8 67 0.0 0.0 0.00 0.00 0.00 99 1004.8
20260506040843 8 97 0.0 0.0 0.00 0.00 0.00 99 1004.4
20260506040340 9 77 0.0 0.0 0.00 0.00 0.00 99 1004.8
20260506035836 9 93 0.0 0.0 0.18 2.41 2.41 99 1004.8
20260506035334 9 355 1.6 1.6 0.18 2.41 2.41 99 1004.8
20260506034831 9 65 0.0 0.0 0.18 2.41 2.41 99 1004.8
20260506034328 9 100 1.6 3.2 0.18 2.41 2.41 99 1004.8
20260506033825 9 66 0.0 0.0 0.18 2.41 2.41 99 1004.8
20260506033322 9 58 0.0 0.0 0.15 2.39 2.39 99 1005.1
20260506032819 9 61 0.0 0.0 0.13 2.36 2.36 99 1005.1
20260506032316 9 82 0.0 0.0 0.10 2.34 2.34 99 1005.5
20260506031813 9 184 1.6 3.2 0.10 2.34 2.34 99 1005.1
20260506031310 9 49 0.0 1.6 0.08 2.31 2.31 99 1005.5
20260506030808 9 55 0.0 0.0 0.05 2.29 2.29 99 1005.5
20260506030306 9 137 0.0 1.6 0.03 2.26 2.26 99 1005.8
20260506025802 10 25 1.6 1.6 0.36 2.21 2.21 99 1005.8
20260506025258 10 67 0.0 0.0 0.30 2.16 2.16 99 1005.8
20260506024756 10 95 0.0 0.0 0.25 2.11 2.11 99 1005.8
20260506024252 10 128 0.0 1.6 0.25 2.11 2.11 99 1005.8
20260506023748 10 185 1.6 1.6 0.23 2.08 2.08 99 1005.5
20260506023246 10 61 3.2 3.2 0.20 2.06 2.06 99 1005.5
20260506022742 11 127 4.8 8.0 0.18 2.03 2.03 99 1005.5
20260506022240 11 66 0.0 0.0 0.18 2.03 2.03 99 1005.5
20260506021738 11 68 1.6 1.6 0.13 1.98 1.98 99 1005.1
20260506021234 11 78 0.0 0.0 0.08 1.93 1.93 99 1004.8